THORAD DELTA 1 R/B(2), 9330

Orbit data source: Space-Track

THORAD DELTA 1 R/B(2), 9330 is space debris in HEO originally from a launch on Thu, 19 Dec 1974 UTC launched from the Air Force Eastern Test Range (AFETR). Debris objects in space refer to the collection of defunct objects orbiting the Earth. Examples of debris include non-operational satellites, rocket bodies, and fragments generated from explosions, collisions, or faulty payload assembly.

Loading next visibility...
Identifier
9330, 1974-101G
Orbit
HEO
Country
Flag of USUS
Related business
Manufacturer
Thiokol/TE
Mission
Spacecraft
Bus & Motor
STAR 37, Unknown motor
Mass
~83 kg wet, 83 kg dry
Launch date (UTC)
1974-12-19 (51 years ago)
Launch vehicle
Unknown
Launch site
Air Force Eastern Test Range (AFETR)
Object type
Payload
Rocket body
Debris
Shape & HBR
Domed Cyl + 1 Nozzle, 0.8 m
Radar Cross Section
1.559 m², Large (>1 m²)

Expand to show TLE details & history
Last TLE update: 17 hours ago

TLE from 17 hours ago
0 THORAD DELTA 1 R/B(2)
1 09330U 74101G   25259.14820864  .00000410  00000-0  15215-2 0  9995
2 09330  13.0705  63.5787 7192298  68.4876 350.5074  2.31097785412706
Epoch: 2025-09-16T03:33Z
TLE epoch observation values (Epoch: 2025-09-16T03:33:25.226Z)
Latitude
0.00004°
Longitude
14.96437°
Altitude
2,840.669 km
Speed
8.365 km/s
True Right ascension
04h 14m 38s
True Declination
0° 00' 00"
Sunlit
Object was in daylight at epoch
Visualization orbit readout
Latitude
Unknown
Longitude
Unknown
Altitude
Unknown
Speed
Unknown
Apparent Right ascension
Unknown
Apparent Declination
Unknown
Sunlit
N/A
Visualization observer readout
Local Sidereal Time
13:46:36
Azimuth
Unknown
Elevation
Unknown
Doppler factor
Unknown
Orbital elements
Apogee altitude
35,177.412 km
Perigee altitude
408.367 km
Semi-major axis
24,171.026 km
Eccentricity
0.71923
Inclination
13.0705°
RAAN
63.5787°
Arg. of periapsis
68.4876°
True anomaly
292.43565°
Mean anomaly
350.5074°
Eccentric anomaly
329.7433°
Mean motion
0.57756 °/min
Orbital period
623.31 mins
BSTAR
0.0015215
Loading maneuver chart data...
Computing Atmospheric mass density...
Loading historical data...
Loading historical data...
Loading historical data...
Loading historical data...
Loading historical data...
Loading historical data...
Loading historical data...

Documentation

Showing up to 5 results
|